Date String (YYYY-MM-DD hh:mm:ss) UTC,Instrument flags,Ambient pressure (hPa),Sample flow (lpm),Bypass flow (lpm),Sample temperature (°C),Ambient temperature (°C),ASC tube jacket temperature (°C),LED temperature (°C),Box temperature (°C),Sample RH (%),Span deviation,Mass concentration (μg/m³),Mass concentration (μg/m³),Mass concentration (μg/m³)
DateTimeUTC,F1_M11,P_M11,Q1_M11,Q2_M11,T1_M11,T2_M11,T3_M11,T4_M11,T5_M11,U1_M11,ZSPAN_M11,X0_M11,X2_M11,X1_M11
2022-11-06 03:00:00,,0814.1,5.00,0.00,25.2,23.7,00.0,34.0,27.1,14.1,0000.0,0001.24,0000.76,0000.64
2022-11-06 03:01:00,,0814.1,5.02,0.00,25.2,23.7,00.0,33.9,27.1,14.1,0000.0,0001.19,0000.76,0000.65
2022-11-06 03:02:00,,0814.0,4.99,0.00,25.2,23.8,00.0,34.0,27.1,14.1,0000.0,0001.23,0000.78,0000.65
2022-11-06 03:03:00,,0814.2,4.99,0.00,25.2,23.8,00.0,34.0,27.1,14.0,0000.0,0001.36,0000.83,0000.66
2022-11-06 03:04:00,,0814.3,5.01,0.00,25.2,23.9,00.0,34.0,27.1,14.0,0000.0,0001.40,0000.85,0000.66
2022-11-06 03:05:00,,0813.9,5.01,0.00,25.2,23.9,00.0,34.0,27.1,14.1,0000.0,0001.41,0000.86,0000.67
2022-11-06 03:06:00,,0814.0,4.98,0.00,25.2,23.9,00.0,34.0,27.1,14.2,0000.0,0001.47,0000.89,0000.68
2022-11-06 03:07:00,,0814.0,5.01,0.00,25.2,23.8,00.0,34.0,27.1,14.2,0000.0,0001.37,0000.85,0000.66
2022-11-06 03:08:00,,0814.2,5.00,0.00,25.2,23.8,00.0,34.0,27.1,14.2,0000.0,0001.33,0000.83,0000.65
2022-11-06 03:09:00,,0814.1,5.00,0.00,25.2,23.9,00.0,34.0,27.1,14.3,0000.0,0001.25,0000.82,0000.64
2022-11-06 03:10:00,,0813.9,5.00,0.00,25.2,23.8,00.0,34.0,27.1,14.3,0000.0,0001.29,0000.84,0000.65
2022-11-06 03:11:00,,0814.4,5.00,0.00,25.2,23.7,00.0,34.0,27.1,14.2,0000.0,0001.31,0000.85,0000.65
2022-11-06 03:12:00,,0814.1,5.00,0.00,25.2,23.6,00.0,34.0,27.0,14.2,0000.0,0001.42,0000.86,0000.63
2022-11-06 03:13:00,,0814.2,5.00,0.00,25.2,23.7,00.0,34.0,27.1,14.3,0000.0,0001.40,0000.83,0000.61
2022-11-06 03:14:00,,0814.4,5.00,0.00,25.2,23.8,00.0,34.0,27.1,14.4,0000.0,0001.27,0000.77,0000.60
2022-11-06 03:15:00,,0814.0,5.00,0.00,25.2,23.8,00.0,34.0,27.1,14.5,0000.0,0001.25,0000.75,0000.58
2022-11-06 03:16:00,,0814.2,5.00,0.00,25.2,23.8,00.0,34.0,27.1,14.4,0000.0,0001.18,0000.72,0000.57
2022-11-06 03:17:00,,0814.0,5.00,0.00,25.2,23.8,00.0,34.0,27.1,14.4,0000.0,0001.15,0000.70,0000.56
2022-11-06 03:18:00,,0814.0,5.00,0.00,25.2,23.9,00.0,34.0,27.1,14.4,0000.0,0001.14,0000.69,0000.55
2022-11-06 03:19:00,,0814.0,5.00,0.00,25.2,23.9,00.0,34.0,27.1,14.4,0000.0,0001.24,0000.72,0000.56
2022-11-06 03:20:00,,0814.2,5.00,0.00,25.2,23.9,00.0,34.0,27.1,14.5,0000.0,0001.30,0000.74,0000.56
2022-11-06 03:21:00,,0814.2,5.00,0.00,25.2,23.9,00.0,34.0,27.1,14.5,0000.0,0001.62,0000.74,0000.55
2022-11-06 03:22:00,,0814.3,5.00,0.00,25.2,23.9,00.0,34.0,27.1,14.3,0000.0,0002.19,0000.73,0000.54
2022-11-06 03:23:00,,0814.4,5.00,0.00,25.2,23.9,00.0,34.0,27.1,14.3,0000.0,0002.09,0000.71,0000.54
2022-11-06 03:24:00,,0814.2,5.01,0.00,25.2,23.9,00.0,34.0,27.1,14.3,0000.0,0002.02,0000.71,0000.55
2022-11-06 03:25:00,,0814.3,5.00,0.00,25.2,23.8,00.0,34.0,27.1,14.2,0000.0,0002.03,0000.72,0000.56
2022-11-06 03:26:00,,0814.5,4.99,0.00,25.2,23.8,00.0,34.0,27.1,14.3,0000.0,0001.99,0000.70,0000.56
2022-11-06 03:27:00,,0814.2,5.00,0.00,25.2,23.6,00.0,34.0,27.0,14.3,0000.0,0002.59,0000.73,0000.56
2022-11-06 03:28:00,,0814.1,5.01,0.00,25.2,23.5,00.0,34.0,27.0,14.3,0000.0,0003.42,0000.75,0000.56
2022-11-06 03:29:00,,0814.3,5.00,0.00,25.1,23.5,00.0,34.0,27.0,14.3,0000.0,0003.51,0000.76,0000.56
2022-11-06 03:30:00,,0814.3,5.01,0.00,25.1,23.6,00.0,34.0,27.0,14.4,0000.0,0003.49,0000.77,0000.56
2022-11-06 03:31:00,,0814.1,4.99,0.00,25.2,23.7,00.0,34.0,27.0,14.4,0000.0,0003.44,0000.74,0000.55
2022-11-06 03:32:00,,0814.3,4.99,0.00,25.2,23.7,00.0,34.0,27.0,14.4,0000.0,0003.15,0000.72,0000.55
2022-11-06 03:33:00,,0814.3,4.99,0.00,25.2,23.7,00.0,34.0,27.1,14.4,0000.0,0002.50,0000.72,0000.56
2022-11-06 03:34:00,,0814.3,5.01,0.00,25.2,23.7,00.0,34.0,27.0,14.4,0000.0,0002.53,0000.73,0000.56
2022-11-06 03:35:00,,0814.4,5.00,0.00,25.1,23.6,00.0,34.0,27.0,14.5,0000.0,0002.58,0000.75,0000.56
2022-11-06 03:36:00,,0814.4,5.00,0.00,25.1,23.4,00.0,34.0,26.9,14.5,0000.0,0002.58,0000.75,0000.56
2022-11-06 03:37:00,,0814.3,4.99,0.00,25.1,23.4,00.0,33.9,26.9,14.6,0000.0,0002.57,0000.74,0000.56
2022-11-06 03:38:00,,0814.4,4.99,0.00,25.1,23.4,00.0,33.9,26.9,14.5,0000.0,0002.14,0000.74,0000.56
2022-11-06 03:39:00,,0814.4,5.00,0.00,25.1,23.5,00.0,33.9,26.9,14.5,0000.0,0001.32,0000.74,0000.56
2022-11-06 03:40:00,,0814.4,5.00,0.00,25.1,23.5,00.0,33.9,27.0,14.5,0000.0,0001.31,0000.75,0000.56
2022-11-06 03:41:00,,0814.4,5.01,0.00,25.1,23.6,00.0,33.9,27.0,14.6,0000.0,0001.24,0000.72,0000.56
2022-11-06 03:42:00,,0814.6,5.00,0.00,25.1,23.7,00.0,33.9,27.0,14.7,0000.0,0001.21,0000.71,0000.57
2022-11-06 03:43:00,,0814.9,5.00,0.00,25.1,23.7,00.0,33.9,27.0,14.7,0000.0,0001.24,0000.73,0000.57
2022-11-06 03:44:00,,0815.1,4.99,0.00,25.1,23.8,00.0,33.9,27.0,14.6,0000.0,0001.27,0000.74,0000.57
2022-11-06 03:45:00,,0814.7,5.00,0.00,25.1,23.8,00.0,33.9,27.0,14.6,0000.0,0001.24,0000.72,0000.57
2022-11-06 03:46:00,,0814.7,5.00,0.00,25.1,23.9,00.0,33.9,27.1,14.6,0000.0,0001.26,0000.71,0000.56
2022-11-06 03:47:00,,0814.9,5.00,0.00,25.2,23.9,00.0,33.9,27.1,14.6,0000.0,0001.29,0000.70,0000.55
2022-11-06 03:48:00,,0814.9,5.00,0.00,25.2,23.9,00.0,33.9,27.1,14.5,0000.0,0001.32,0000.71,0000.55
2022-11-06 03:49:00,,0815.1,4.98,0.00,25.2,23.8,00.0,33.9,27.1,14.5,0000.0,0001.24,0000.69,0000.55
2022-11-06 03:50:00,,0815.0,5.01,0.00,25.1,23.6,00.0,33.9,27.0,14.6,0000.0,0001.17,0000.67,0000.53
2022-11-06 03:51:00,,0814.8,5.01,0.00,25.1,23.5,00.0,33.9,27.0,14.6,0000.0,0001.10,0000.64,0000.52
2022-11-06 03:52:00,,0814.9,5.00,0.00,25.1,23.5,00.0,33.9,27.0,14.7,0000.0,0001.09,0000.64,0000.52
2022-11-06 03:53:00,,0814.6,4.99,0.00,25.1,23.4,00.0,33.9,26.9,14.7,0000.0,0001.14,0000.65,0000.51
2022-11-06 03:54:00,,0814.6,5.01,0.00,25.1,23.5,00.0,33.9,26.9,14.7,0000.0,0001.13,0000.64,0000.50
2022-11-06 03:55:00,,0814.5,5.01,0.00,25.1,23.6,00.0,33.9,26.9,14.7,0000.0,0001.13,0000.64,0000.50
2022-11-06 03:56:00,,0814.6,4.98,0.00,25.1,23.6,00.0,33.9,26.9,14.6,0000.0,0001.18,0000.66,0000.50
2022-11-06 03:57:00,,0814.7,5.01,0.00,25.1,23.7,00.0,33.9,27.0,14.6,0000.0,0001.14,0000.66,0000.49
2022-11-06 03:58:00,,0814.6,5.02,0.00,25.1,23.7,00.0,33.9,27.0,14.7,0000.0,0001.23,0000.68,0000.50
2022-11-06 03:59:00,,0814.5,5.00,0.00,25.1,23.8,00.0,33.9,27.0,14.6,0000.0,0001.26,0000.69,0000.50
